Flag for Laos Weather past 2 weeks in Vientiane, Laos

Now
91 °F

Broken clouds.


Feels Like: 105 °F
Forecast: 75 / 91 °F
Wind: 2 mph from South

Location: Vientiane Airport

Current Time: Jul 24, 2014 at 4:07:45 PM

Latest Report: Jul 24, 2014 at 3:30 PM


Visibility: N/A

Pressure: 29.56 "Hg

Humidity: 63%

Dew point: 77 °F

Location of VientianeLocation

Historic Weather in Vientiane — Graph

°F

Vientiane temperature yesterday

Maximum temperature yesterday: 88 °F (at 1:00 PM)
Minimum temperature yesterday: 75 °F (at 7:00 AM)
Average temperature yesterday: 83 °F

Past Weeks' High & Low Weather Summary

 TemperatureHumidityPressure
High91 °F (Jul 17, 4:00 PM)100% (Jul 10, 7:00 AM)29.77 "Hg (Jul 10, 7:00 AM)
Low75 °F (Jul 22, 8:00 PM)49% (Jul 17, 6:00 PM)29.50 "Hg (Jul 17, 5:00 PM)
Average83 °F82%29.65 "Hg
* Reported Jul 9 2:00 PM — Jul 24 2:30 PM, Vientiane, Weather by CustomWeather, © 2014

Note: Actual official high and low records may vary slightly from our data, if they occured in-between our weather recording intervals... More about our weather records

Advertising

Vientiane weather history for previous 24 hours

 ConditionsComfort  
Time TempWeatherWind HumidityBarometerVisibility
2:30 PM
Jul 24
90 °FScattered clouds.2 mph67%29.59 "HgN/A
2:00 PM88 °FScattered clouds.2 mph70%29.62 "HgN/A
1:30 PM88 °FPartly sunny.7 mph70%29.65 "HgN/A
12:30 PM88 °FRain. Scattered clouds.7 mph66%29.65 "Hg3 mi
12:00 PM88 °FScattered clouds.7 mph66%29.65 "HgN/A
11:30 AM88 °FScattered clouds.5 mph66%29.65 "HgN/A
11:00 AM86 °FScattered clouds.5 mph70%29.68 "HgN/A
10:30 AM86 °FScattered clouds.5 mph70%29.68 "HgN/A
10:00 AM84 °FScattered clouds.5 mph74%29.68 "HgN/A
9:30 AM84 °FBroken clouds.2 mph74%29.65 "HgN/A
9:00 AM82 °FPartly sunny.2 mph79%29.65 "HgN/A
8:30 AM82 °FScattered clouds.2 mph79%29.65 "HgN/A
7:30 AM82 °FScattered clouds.2 mph79%29.62 "HgN/A
7:00 AM79 °FScattered clouds.2 mph89%29.62 "HgN/A
6:30 AM79 °FFog.2 mph89%29.62 "Hg2 mi
6:00 AM79 °FFog.2 mph89%29.62 "Hg2 mi
10:30 PM
Jul 23
81 °FFog.2 mph89%29.65 "Hg2 mi
10:00 PM81 °FFog.2 mph89%29.65 "Hg2 mi
9:30 PM82 °FFog.2 mph84%29.65 "Hg2 mi
9:00 PM82 °FFog.2 mph84%29.65 "Hg2 mi
8:00 PM82 °FThunderstorms. Passing clouds.2 mph89%29.62 "Hg2 mi
7:30 PM86 °FThunderstorms. Passing clouds.2 mph79%29.59 "Hg2 mi
7:00 PM86 °FFog.2 mph79%29.59 "Hg3 mi
6:30 PM88 °FScattered clouds.2 mph70%29.56 "Hg4 mi
6:00 PM88 °FScattered clouds.2 mph70%29.56 "HgN/A
5:30 PM88 °FScattered clouds.2 mph75%29.53 "HgN/A
4:00 PM86 °FScattered clouds.2 mph79%29.53 "Hg5 mi
Weather by CustomWeather, © 2014

See weather overviewHow to use our weather pages